Time,TemperatureF,DewpointF,PressureIn,WindDirection,WindDirectionDegrees,WindSpeedMPH,WindSpeedGustMPH,Humidity,HourlyPrecipIn,Conditions,Clouds,dailyrainin,SoftwareType,DateUTC
2013-03-10 00:04:00,56.0,35.0,30.19,South,180,0.0,-999.0,46,-99.99,,,0.00,weatherlink.com 1.10,2013-03-10 06:04:00,
2013-03-10 00:19:00,55.8,36.0,30.19,SSE,168,0.0,-999.0,47,-99.99,,,0.00,weatherlink.com 1.10,2013-03-10 06:19:00,
2013-03-10 00:34:00,55.5,35.0,30.18,South,169,0.0,-999.0,47,-99.99,,,0.00,weatherlink.com 1.10,2013-03-10 06:34:00,
2013-03-10 00:49:00,55.3,35.0,30.20,SW,221,0.0,-999.0,47,-99.99,,,0.00,weatherlink.com 1.10,2013-03-10 06:49:00,
2013-03-10 01:04:00,55.6,35.0,30.18,SSE,149,6.0,-999.0,47,-99.99,,,0.00,weatherlink.com 1.10,2013-03-10 07:04:00,
2013-03-10 01:19:00,55.8,36.0,30.17,SE,143,6.0,-999.0,47,-99.99,,,0.00,weatherlink.com 1.10,2013-03-10 07:19:00,
2013-03-10 01:34:00,55.6,36.0,30.17,SE,144,5.0,-999.0,48,-99.99,,,0.00,weatherlink.com 1.10,2013-03-10 07:34:00,
2013-03-10 01:49:00,55.3,36.0,30.16,SE,141,0.0,-999.0,48,-99.99,,,0.00,weatherlink.com 1.10,2013-03-10 07:49:00,
2013-03-10 03:04:00,55.1,36.0,30.15,SE,141,0.0,-999.0,48,-99.99,,,0.00,weatherlink.com 1.10,2013-03-10 08:04:00,
2013-03-10 03:19:00,54.7,36.0,30.15,SSE,168,0.0,-999.0,49,-99.99,,,0.00,weatherlink.com 1.10,2013-03-10 08:19:00,
2013-03-10 03:34:00,54.7,36.0,30.16,SW,214,1.0,-999.0,49,-99.99,,,0.00,weatherlink.com 1.10,2013-03-10 08:34:00,
2013-03-10 03:49:00,54.8,35.0,30.15,South,189,0.0,-999.0,48,-99.99,,,0.00,weatherlink.com 1.10,2013-03-10 08:49:00,
2013-03-10 04:04:00,54.8,35.0,30.15,SSE,156,0.0,-999.0,48,-99.99,,,0.00,weatherlink.com 1.10,2013-03-10 09:04:00,
2013-03-10 04:19:00,55.0,35.0,30.15,SSE,156,0.0,-999.0,48,-99.99,,,0.00,weatherlink.com 1.10,2013-03-10 09:19:00,
2013-03-10 04:34:00,54.7,35.0,30.16,South,184,0.0,-999.0,48,-99.99,,,0.00,weatherlink.com 1.10,2013-03-10 09:34:00,
2013-03-10 04:49:00,54.1,36.0,30.16,South,182,0.0,-999.0,50,-99.99,,,0.00,weatherlink.com 1.10,2013-03-10 09:49:00,
2013-03-10 05:04:00,53.8,35.0,30.17,SSE,157,0.0,-999.0,50,-99.99,,,0.00,weatherlink.com 1.10,2013-03-10 10:04:00,
2013-03-10 05:19:00,53.3,35.0,30.17,South,173,0.0,-999.0,50,-99.99,,,0.00,weatherlink.com 1.10,2013-03-10 10:19:00,
2013-03-10 05:34:00,53.5,35.0,30.16,SE,142,1.0,-999.0,50,-99.99,,,0.00,weatherlink.com 1.10,2013-03-10 10:34:00,
2013-03-10 05:49:00,53.5,35.0,30.18,NE,49,0.0,-999.0,49,-99.99,,,0.00,weatherlink.com 1.10,2013-03-10 10:49:00,
2013-03-10 06:04:00,53.6,35.0,30.17,SE,142,7.0,-999.0,49,-99.99,,,0.00,weatherlink.com 1.10,2013-03-10 11:04:00,
2013-03-10 06:19:00,53.6,35.0,30.15,SE,146,8.0,-999.0,49,-99.99,,,0.00,weatherlink.com 1.10,2013-03-10 11:19:00,
2013-03-10 06:34:00,53.6,35.0,30.15,SE,142,2.0,-999.0,49,-99.99,,,0.00,weatherlink.com 1.10,2013-03-10 11:34:00,
2013-03-10 06:49:00,53.0,35.0,30.16,SE,144,2.0,-999.0,50,-99.99,,,0.00,weatherlink.com 1.10,2013-03-10 11:49:00,
2013-03-10 07:04:00,52.3,34.0,30.16,SSW,196,0.0,-999.0,51,-99.99,,,0.00,weatherlink.com 1.10,2013-03-10 12:04:00,
2013-03-10 07:19:00,51.5,34.0,30.16,SSE,156,0.0,-999.0,52,-99.99,,,0.00,weatherlink.com 1.10,2013-03-10 12:19:00,
2013-03-10 07:35:00,52.4,35.0,30.16,SSE,153,0.0,-999.0,51,-99.99,,,0.00,weatherlink.com 1.10,2013-03-10 12:35:00,
2013-03-10 07:50:00,53.7,35.0,30.17,SE,143,6.0,-999.0,50,-99.99,,,0.00,weatherlink.com 1.10,2013-03-10 12:50:00,
2013-03-10 08:05:00,54.2,35.0,30.17,SE,134,5.0,-999.0,49,-99.99,,,0.00,weatherlink.com 1.10,2013-03-10 13:05:00,
2013-03-10 08:20:00,54.2,36.0,30.17,SE,144,4.0,-999.0,50,-99.99,,,0.00,weatherlink.com 1.10,2013-03-10 13:20:00,
2013-03-10 08:35:00,54.7,36.0,30.17,SSE,151,0.0,-999.0,49,-99.99,,,0.00,weatherlink.com 1.10,2013-03-10 13:35:00,
2013-03-10 08:50:00,55.3,37.0,30.16,SSE,157,2.0,-999.0,50,-99.99,,,0.00,weatherlink.com 1.10,2013-03-10 13:50:00,
2013-03-10 09:05:00,56.2,37.0,30.17,SW,235,3.0,-999.0,49,-99.99,,,0.00,weatherlink.com 1.10,2013-03-10 14:05:00,
2013-03-10 09:20:00,57.5,38.0,30.17,SSE,149,0.0,-999.0,48,-99.99,,,0.00,weatherlink.com 1.10,2013-03-10 14:20:00,
2013-03-10 09:35:00,59.1,39.0,30.17,South,190,0.0,-999.0,47,-99.99,,,0.00,weatherlink.com 1.10,2013-03-10 14:35:00,
2013-03-10 09:50:00,59.4,38.0,30.17,SSE,163,8.0,-999.0,46,-99.99,,,0.00,weatherlink.com 1.10,2013-03-10 14:50:00,
2013-03-10 10:05:00,59.2,39.0,30.16,WSW,257,3.0,-999.0,47,-99.99,,,0.00,weatherlink.com 1.10,2013-03-10 15:05:00,
2013-03-10 10:20:00,61.0,39.0,30.15,SSE,167,6.0,-999.0,44,-99.99,,,0.00,weatherlink.com 1.10,2013-03-10 15:20:00,
2013-03-10 10:35:00,62.2,39.0,30.14,SE,134,5.0,-999.0,43,-99.99,,,0.00,weatherlink.com 1.10,2013-03-10 15:35:00,
2013-03-10 10:50:00,62.8,39.0,30.14,SSW,195,0.0,-999.0,42,-99.99,,,0.00,weatherlink.com 1.10,2013-03-10 15:50:00,
2013-03-10 11:05:00,63.4,39.0,30.13,East,101,0.0,-999.0,41,-99.99,,,0.00,weatherlink.com 1.10,2013-03-10 16:05:00,
2013-03-10 11:20:00,64.2,39.0,30.14,SW,230,1.0,-999.0,40,-99.99,,,0.00,weatherlink.com 1.10,2013-03-10 16:20:00,
2013-03-10 11:35:00,64.9,39.0,30.14,SSW,202,0.0,-999.0,38,-99.99,,,0.00,weatherlink.com 1.10,2013-03-10 16:35:00,
2013-03-10 11:50:00,66.1,40.0,30.13,SSE,168,1.0,-999.0,38,-99.99,,,0.00,weatherlink.com 1.10,2013-03-10 16:50:00,
2013-03-10 12:05:00,66.1,40.0,30.13,SSE,150,11.0,-999.0,38,-99.99,,,0.00,weatherlink.com 1.10,2013-03-10 17:05:00,
2013-03-10 12:20:00,67.4,39.0,30.14,SW,225,3.0,-999.0,36,-99.99,,,0.00,weatherlink.com 1.10,2013-03-10 17:20:00,
2013-03-10 12:35:00,67.5,40.0,30.12,South,169,0.0,-999.0,37,-99.99,,,0.00,weatherlink.com 1.10,2013-03-10 17:35:00,
2013-03-10 12:50:00,67.6,40.0,30.12,SSE,153,9.0,-999.0,37,-99.99,,,0.00,weatherlink.com 1.10,2013-03-10 17:50:00,
2013-03-10 13:05:00,68.5,41.0,30.12,SSW,196,10.0,-999.0,37,-99.99,,,0.00,weatherlink.com 1.10,2013-03-10 18:05:00,
2013-03-10 13:20:00,68.3,42.0,30.09,SSW,209,0.0,-999.0,39,-99.99,,,0.00,weatherlink.com 1.10,2013-03-10 18:20:00,
2013-03-10 13:35:00,69.1,42.0,30.10,South,177,10.0,-999.0,38,-99.99,,,0.00,weatherlink.com 1.10,2013-03-10 18:35:00,
2013-03-10 13:50:00,68.6,43.0,30.09,SW,225,22.0,-999.0,39,-99.99,,,0.00,weatherlink.com 1.10,2013-03-10 18:50:00,
2013-03-10 14:05:00,68.1,43.0,30.08,SSW,205,0.0,-999.0,41,-99.99,,,0.00,weatherlink.com 1.10,2013-03-10 19:05:00,
2013-03-10 14:20:00,69.9,44.0,30.07,SW,219,8.0,-999.0,39,-99.99,,,0.00,weatherlink.com 1.10,2013-03-10 19:20:00,
2013-03-10 14:35:00,71.0,45.0,30.06,SW,215,0.0,-999.0,39,-99.99,,,0.00,weatherlink.com 1.10,2013-03-10 19:35:00,
2013-03-10 14:50:00,69.9,45.0,30.06,SW,219,12.0,-999.0,41,-99.99,,,0.00,weatherlink.com 1.10,2013-03-10 19:50:00,
2013-03-10 15:05:00,71.8,46.0,30.06,SSE,160,1.0,-999.0,40,-99.99,,,0.00,weatherlink.com 1.10,2013-03-10 20:05:00,
2013-03-10 15:20:00,72.0,44.0,30.04,South,184,0.0,-999.0,37,-99.99,,,0.00,weatherlink.com 1.10,2013-03-10 20:20:00,
2013-03-10 15:35:00,72.5,42.0,30.05,South,184,1.0,-999.0,34,-99.99,,,0.00,weatherlink.com 1.10,2013-03-10 20:35:00,
2013-03-10 15:50:00,71.8,44.0,30.05,SSE,155,0.0,-999.0,37,-99.99,,,0.00,weatherlink.com 1.10,2013-03-10 20:50:00,
2013-03-10 16:05:00,71.2,44.0,30.04,SSW,204,0.0,-999.0,38,-99.99,,,0.00,weatherlink.com 1.10,2013-03-10 21:05:00,
2013-03-10 16:21:00,72.1,45.0,30.02,SSW,207,4.0,-999.0,38,-99.99,,,0.00,weatherlink.com 1.10,2013-03-10 21:21:00,
2013-03-10 16:36:00,74.8,46.0,30.02,SSW,203,10.0,-999.0,36,-99.99,,,0.00,weatherlink.com 1.10,2013-03-10 21:36:00,
2013-03-10 16:51:00,73.7,45.0,30.02,South,186,0.0,-999.0,36,-99.99,,,0.00,weatherlink.com 1.10,2013-03-10 21:51:00,
2013-03-10 17:06:00,72.8,44.0,30.01,South,180,1.0,-999.0,36,-99.99,,,0.00,weatherlink.com 1.10,2013-03-10 22:06:00,
2013-03-10 17:22:00,72.3,45.0,30.00,SSW,207,9.0,-999.0,38,-99.99,,,0.00,weatherlink.com 1.10,2013-03-10 22:22:00,
2013-03-10 17:36:00,72.2,44.0,30.00,SSW,204,0.0,-999.0,37,-99.99,,,0.00,weatherlink.com 1.10,2013-03-10 22:36:00,
2013-03-10 17:51:00,71.6,45.0,30.00,SW,234,10.0,-999.0,39,-99.99,,,0.00,weatherlink.com 1.10,2013-03-10 22:51:00,
2013-03-10 18:06:00,71.0,46.0,30.00,SW,215,10.0,-999.0,41,-99.99,,,0.00,weatherlink.com 1.10,2013-03-10 23:06:00,
2013-03-10 18:36:00,69.0,46.0,29.99,SW,223,2.0,-999.0,44,-99.99,,,0.00,weatherlink.com 1.10,2013-03-10 23:36:00,
2013-03-10 19:06:00,67.5,46.0,29.99,SW,223,0.0,-999.0,46,-99.99,,,0.00,weatherlink.com 1.10,2013-03-11 00:06:00,
2013-03-10 20:06:00,65.4,47.0,29.99,South,182,0.0,-999.0,52,-99.99,,,0.00,weatherlink.com 1.10,2013-03-11 01:06:00,
2013-03-10 20:21:00,65.1,48.0,29.99,SE,133,0.0,-999.0,54,-99.99,,,0.00,weatherlink.com 1.10,2013-03-11 01:21:00,
2013-03-10 20:36:00,65.0,48.0,29.99,SE,140,0.0,-999.0,54,-99.99,,,0.00,weatherlink.com 1.10,2013-03-11 01:36:00,
2013-03-10 20:51:00,64.9,48.0,30.01,SW,221,0.0,-999.0,55,-99.99,,,0.00,weatherlink.com 1.10,2013-03-11 01:51:00,
2013-03-10 21:06:00,64.7,48.0,30.01,SW,221,0.0,-999.0,56,-99.99,,,0.00,weatherlink.com 1.10,2013-03-11 02:06:00,
2013-03-10 21:21:00,64.9,49.0,30.00,SSW,196,0.0,-999.0,56,-99.99,,,0.00,weatherlink.com 1.10,2013-03-11 02:21:00,
2013-03-10 21:51:00,64.1,49.0,30.02,SSW,208,0.0,-999.0,58,-99.99,,,0.00,weatherlink.com 1.10,2013-03-11 02:51:00,
2013-03-10 22:06:00,63.9,49.0,30.03,SW,220,0.0,-999.0,58,-99.99,,,0.00,weatherlink.com 1.10,2013-03-11 03:06:00,
2013-03-10 22:21:00,64.1,49.0,30.02,SSE,153,0.0,-999.0,59,-99.99,,,0.00,weatherlink.com 1.10,2013-03-11 03:21:00,
2013-03-10 22:51:00,63.9,50.0,30.03,South,183,0.0,-999.0,61,-99.99,,,0.00,weatherlink.com 1.10,2013-03-11 03:51:00,
2013-03-10 23:06:00,63.6,50.0,30.03,SW,227,10.0,-999.0,61,-99.99,,,0.00,weatherlink.com 1.10,2013-03-11 04:06:00,
2013-03-10 23:21:00,63.3,50.0,30.02,South,190,0.0,-999.0,62,-99.99,,,0.00,weatherlink.com 1.10,2013-03-11 04:21:00,
2013-03-10 23:51:00,62.7,50.0,30.01,South,188,0.0,-999.0,63,-99.99,,,0.00,weatherlink.com 1.10,2013-03-11 04:51:00,